sat.trackr.live / text

‹ back to catalog

ONEWEB-0574

NORAD 56063 · 2023-043T

PAYLOAD ACTIVE UNKNOWN

§ Identity

Operator
Country
UK
Launch date
2023-03-26
Launch site
SRILR
Launch vehicle
Mass (kg)
RCS (m²)

Purposes: comms

External: N2YO · Heavens-Above · Gunter

§ Orbital elements

Epoch: 2026-09-20T04:34:43.372992Z

Period
108.94 min
Inclination
87.9287°
Eccentricity
0.0002258
Mean motion
13.21826114 rev/d
Perigee alt
1,176.0 km
Apogee alt
1,179.5 km
Semi-major
7,555.9 km
B*
2.3442e-4
RAAN
225.0679°
Arg perigee
81.5961°
Mean anomaly
278.5429°
Rev number
17,082

§ Raw data

ONEWEB-05741 56063U 23043T   26263.19077978  .00000110  00000+0  23442-3 0  99982 56063  87.9287 225.0679 0002258  81.5961 278.5429 13.21826114170825

JSON: /api/v1/satellites/56063 · /tle

For live sub-satellite position, see the globe view (requires WebGL).

§ Visibility from observer

Set your observer location to see the next 7 days of passes ≥ 10°. The values pass through the URL so the page stays shareable.

No JS? Fill the form by hand. The geolocation button needs JavaScript.